| time (UTC) | temp F | wind direction | speed MPH | gust MPH | rain 1hr in | rain 24hr in | rain mn in | humidity % | barometer mb |
| 20260509204416 | 83 | 66 | 5.0 | 9.0 | 0.00 | 0.77 | 0.00 | 63 | 1012.8 |
| 20260509203408 | 83 | 69 | 0.0 | 1.0 | 0.00 | 0.77 | 0.00 | 60 | 1012.9 |
| 20260509202415 | 84 | 0.0 | 0.0 | 0.00 | 0.77 | 0.00 | 61 | 1013.1 | |
| 20260509201408 | 84 | 27 | 5.0 | 7.0 | 0.00 | 0.77 | 0.00 | 61 | 1012.9 |
| 20260509200400 | 83 | 91 | 4.0 | 9.0 | 0.00 | 0.77 | 0.00 | 62 | 1012.9 |
| 20260509195334 | 83 | 111 | 0.0 | 1.0 | 0.00 | 0.77 | 0.00 | 62 | 1013.2 |
| 20260509194333 | 84 | 77 | 1.0 | 3.0 | 0.00 | 0.77 | 0.00 | 61 | 1013.1 |
| 20260509193334 | 83 | 86 | 9.0 | 9.0 | 0.00 | 0.77 | 0.00 | 63 | 1013.5 |
| 20260509192353 | 84 | 212 | 3.0 | 3.0 | 0.00 | 0.77 | 0.00 | 61 | 1013.5 |
| 20260509191353 | 84 | 40 | 1.0 | 1.0 | 0.00 | 0.77 | 0.00 | 62 | 1013.3 |
| 20260509190336 | 83 | 93 | 1.0 | 2.0 | 0.00 | 0.77 | 0.00 | 66 | 1013.5 |
| 20260509185333 | 83 | 77 | 3.0 | 5.0 | 0.00 | 0.77 | 0.00 | 64 | 1013.5 |
| 20260509184333 | 82 | 107 | 2.0 | 2.0 | 0.00 | 0.77 | 0.00 | 63 | 1013.7 |
| 20260509183353 | 83 | 0.0 | 0.0 | 0.00 | 0.77 | 0.00 | 64 | 1013.6 | |
| 20260509182333 | 83 | 121 | 3.0 | 3.0 | 0.00 | 0.77 | 0.00 | 64 | 1013.7 |
| 20260509181333 | 82 | 240 | 3.0 | 3.0 | 0.00 | 0.77 | 0.00 | 64 | 1013.9 |
| 20260509180334 | 82 | 109 | 2.0 | 2.0 | 0.00 | 0.77 | 0.00 | 67 | 1014.1 |
| 20260509175333 | 81 | 210 | 3.0 | 3.0 | 0.00 | 0.77 | 0.00 | 67 | 1014.1 |
| 20260509174353 | 81 | 64 | 2.0 | 3.0 | 0.00 | 0.77 | 0.00 | 68 | 1014.1 |
| 20260509173333 | 81 | 108 | 1.0 | 2.0 | 0.00 | 0.77 | 0.00 | 67 | 1014.3 |
| 20260509172333 | 80 | 120 | 1.0 | 1.0 | 0.00 | 0.77 | 0.00 | 69 | 1014.3 |
| 20260509171333 | 80 | 200 | 5.0 | 6.0 | 0.00 | 0.77 | 0.00 | 70 | 1014.5 |
| 20260509170353 | 79 | 69 | 4.0 | 5.0 | 0.00 | 0.77 | 0.00 | 72 | 1014.1 |
| 20260509165353 | 78 | 221 | 4.0 | 5.0 | 0.00 | 0.77 | 0.00 | 73 | 1014.3 |
| 20260509164353 | 78 | 101 | 2.0 | 3.0 | 0.00 | 0.77 | 0.00 | 74 | 1014.6 |
| 20260509163334 | 78 | 209 | 5.0 | 6.0 | 0.00 | 0.77 | 0.00 | 73 | 1014.4 |
| 20260509162333 | 77 | 131 | 1.0 | 1.0 | 0.00 | 0.77 | 0.00 | 75 | 1014.5 |
| 20260509161333 | 78 | 291 | 4.0 | 5.0 | 0.00 | 0.77 | 0.00 | 74 | 1014.3 |
| 20260509160353 | 77 | 59 | 7.0 | 8.0 | 0.00 | 0.77 | 0.00 | 76 | 1014.2 |
| 20260509155333 | 76 | 54 | 3.0 | 3.0 | 0.00 | 0.77 | 0.00 | 78 | 1014.4 |
| 20260509154354 | 76 | 285 | 5.0 | 6.0 | 0.00 | 0.77 | 0.00 | 80 | 1014.3 |
| 20260509153333 | 74 | 219 | 4.0 | 5.0 | 0.00 | 0.77 | 0.00 | 83 | 1014.3 |
| 20260509152333 | 74 | 291 | 4.0 | 5.0 | 0.00 | 0.77 | 0.00 | 82 | 1014.3 |
| 20260509151333 | 74 | 255 | 2.0 | 2.0 | 0.00 | 0.77 | 0.00 | 83 | 1014.4 |
| 20260509150353 | 73 | 265 | 5.0 | 6.0 | 0.00 | 0.77 | 0.00 | 83 | 1014.5 |
| 20260509145333 | 73 | 209 | 3.0 | 3.0 | 0.00 | 0.77 | 0.00 | 83 | 1014.6 |
| 20260509144353 | 73 | 160 | 3.0 | 3.0 | 0.00 | 0.77 | 0.00 | 83 | 1014.4 |
| 20260509143333 | 73 | 261 | 4.0 | 5.0 | 0.00 | 0.77 | 0.00 | 84 | 1014.5 |
| 20260509142332 | 73 | 181 | 3.0 | 3.0 | 0.00 | 0.77 | 0.00 | 86 | 1014.1 |
| 20260509141333 | 72 | 253 | 4.0 | 5.0 | 0.00 | 0.77 | 0.00 | 87 | 1014.0 |
| 20260509140333 | 72 | 229 | 3.0 | 3.0 | 0.00 | 0.77 | 0.00 | 88 | 1014.1 |
| 20260509135333 | 72 | 179 | 3.0 | 3.0 | 0.00 | 0.77 | 0.00 | 89 | 1014.1 |
| 20260509134333 | 71 | 213 | 2.0 | 2.0 | 0.00 | 0.77 | 0.00 | 90 | 1013.9 |
| 20260509133333 | 71 | 0.0 | 0.0 | 0.00 | 0.77 | 0.00 | 91 | 1013.9 | |
| 20260509132333 | 71 | 147 | 0.0 | 1.0 | 0.00 | 0.77 | 0.00 | 92 | 1013.9 |
| 20260509131334 | 70 | 114 | 1.0 | 1.0 | 0.00 | 0.77 | 0.00 | 93 | 1013.6 |
| 20260509130332 | 70 | 175 | 2.0 | 2.0 | 0.00 | 0.77 | 0.00 | 93 | 1014.0 |
| 20260509125307 | 70 | 109 | 1.0 | 2.0 | 0.00 | 0.77 | 0.00 | 93 | 1013.9 |
| 20260509124256 | 70 | 0.0 | 0.0 | 0.00 | 0.77 | 0.00 | 92 | 1013.9 | |
| 20260509123248 | 70 | 118 | 1.0 | 1.0 | 0.00 | 0.77 | 0.00 | 92 | 1013.8 |
| 20260509122233 | 70 | 0.0 | 0.0 | 0.00 | 0.77 | 0.00 | 93 | 1013.6 | |
| 20260509121232 | 69 | 0.0 | 0.0 | 0.00 | 0.77 | 0.00 | 94 | 1013.6 | |
| 20260509120224 | 69 | 0.0 | 0.0 | 0.00 | 0.77 | 0.00 | 93 | 1013.7 | |
| 20260509115216 | 69 | 104 | 3.0 | 3.0 | 0.00 | 0.77 | 0.00 | 93 | 1013.5 |
| 20260509114152 | 69 | 109 | 1.0 | 1.0 | 0.00 | 0.77 | 0.00 | 93 | 1013.4 |
| 20260509113200 | 69 | 93 | 4.0 | 5.0 | 0.00 | 0.77 | 0.00 | 93 | 1013.2 |
| 20260509112212 | 69 | 120 | 4.0 | 6.0 | 0.00 | 0.83 | 0.00 | 93 | 1013.2 |
| 20260509111201 | 69 | 111 | 4.0 | 5.0 | 0.00 | 0.89 | 0.00 | 92 | 1012.9 |
| 20260509110153 | 69 | 121 | 1.0 | 1.0 | 0.00 | 0.95 | 0.00 | 92 | 1012.7 |
| 20260509105201 | 69 | 119 | 3.0 | 3.0 | 0.00 | 0.97 | 0.00 | 92 | 1012.8 |
| 20260509104152 | 69 | 135 | 2.0 | 3.0 | 0.00 | 1.11 | 0.00 | 92 | 1012.7 |
| 20260509103200 | 69 | 124 | 3.0 | 3.0 | 0.00 | 1.13 | 0.00 | 92 | 1012.3 |
| 20260509102153 | 69 | 154 | 2.0 | 6.0 | 0.00 | 1.15 | 0.00 | 91 | 1012.2 |
| 20260509101201 | 69 | 129 | 5.0 | 6.0 | 0.00 | 1.15 | 0.00 | 91 | 1012.3 |
| 20260509100152 | 69 | 107 | 6.0 | 8.0 | 0.00 | 1.15 | 0.00 | 92 | 1012.3 |
| 20260509095200 | 69 | 92 | 2.0 | 3.0 | 0.00 | 1.15 | 0.00 | 92 | 1012.5 |
| 20260509094153 | 69 | 77 | 1.0 | 2.0 | 0.00 | 1.15 | 0.00 | 92 | 1012.5 |
| 20260509093200 | 69 | 86 | 2.0 | 2.0 | 0.00 | 1.16 | 0.00 | 91 | 1012.5 |
| 20260509092152 | 69 | 108 | 1.0 | 1.0 | 0.00 | 1.16 | 0.00 | 91 | 1012.3 |
| 20260509091200 | 69 | 28 | 4.0 | 6.0 | 0.00 | 1.16 | 0.00 | 91 | 1011.7 |
| 20260509090213 | 69 | 91 | 5.0 | 7.0 | 0.00 | 1.16 | 0.00 | 91 | 1011.5 |
| 20260509085200 | 69 | 112 | 8.0 | 10.0 | 0.00 | 1.16 | 0.00 | 91 | 1011.3 |
| 20260509084153 | 69 | 108 | 8.0 | 11.0 | 0.00 | 1.16 | 0.00 | 91 | 1011.5 |
| 20260509083201 | 69 | 109 | 5.0 | 8.0 | 0.00 | 1.16 | 0.00 | 91 | 1011.7 |
| 20260509082233 | 69 | 98 | 6.0 | 9.0 | 0.00 | 1.16 | 0.00 | 93 | 1012.0 |
| 20260509081221 | 69 | 96 | 5.0 | 7.0 | 0.00 | 1.17 | 0.00 | 93 | 1012.3 |
| 20260509080152 | 68 | 128 | 8.0 | 10.0 | 0.00 | 1.20 | 0.00 | 93 | 1012.3 |
| 20260509075200 | 68 | 117 | 5.0 | 7.0 | 0.00 | 1.20 | 0.00 | 93 | 1012.9 |
| 20260509074152 | 68 | 102 | 3.0 | 5.0 | 0.00 | 1.20 | 0.00 | 93 | 1013.5 |
| 20260509073200 | 68 | 0.0 | 0.0 | 0.00 | 1.20 | 0.00 | 92 | 1013.8 | |
| 20260509072153 | 68 | 99 | 4.0 | 5.0 | 0.00 | 1.20 | 0.00 | 92 | 1014.0 |
| 20260509071200 | 67 | 85 | 4.0 | 5.0 | 0.00 | 1.20 | 0.00 | 93 | 1014.1 |
| 20260509070153 | 67 | 74 | 2.0 | 3.0 | 0.00 | 1.20 | 0.00 | 92 | 1014.5 |
| 20260509065201 | 67 | 59 | 2.0 | 3.0 | 0.00 | 1.20 | 0.00 | 91 | 1014.3 |
| 20260509064153 | 68 | 217 | 3.0 | 3.0 | 0.00 | 1.20 | 0.00 | 90 | 1013.8 |
| 20260509063201 | 68 | 126 | 0.0 | 2.0 | 0.00 | 1.20 | 0.00 | 90 | 1013.3 |
| 20260509062152 | 68 | 123 | 1.0 | 2.0 | 0.00 | 1.20 | 0.00 | 90 | 1013.4 |
| 20260509061202 | 68 | 128 | 3.0 | 3.0 | 0.00 | 1.20 | 0.00 | 90 | 1013.2 |
| 20260509060153 | 68 | 132 | 3.0 | 6.0 | 0.00 | 1.20 | 0.00 | 90 | 1013.3 |
| 20260509055201 | 68 | 102 | 2.0 | 3.0 | 0.00 | 1.20 | 0.00 | 91 | 1013.5 |
| 20260509054153 | 68 | 140 | 2.0 | 5.0 | 0.00 | 1.20 | 0.00 | 90 | 1014.0 |
| 20260509053201 | 68 | 0.0 | 0.0 | 0.00 | 1.20 | 0.00 | 90 | 1014.4 | |
| 20260509052153 | 68 | 143 | 0.0 | 1.0 | 0.00 | 1.20 | 0.00 | 90 | 1014.4 |
| 20260509051201 | 68 | 141 | 1.0 | 3.0 | 0.00 | 1.20 | 0.00 | 91 | 1014.3 |
| 20260509050152 | 68 | 0.0 | 0.0 | 0.00 | 1.20 | 0.00 | 91 | 1014.8 | |
| 20260509045201 | 68 | 124 | 1.0 | 1.0 | 0.00 | 1.20 | 1.20 | 90 | 1014.4 |
| 20260509044153 | 69 | 144 | 3.0 | 3.0 | 0.00 | 1.20 | 1.20 | 88 | 1013.6 |
| 20260509043221 | 69 | 0.0 | 0.0 | 0.00 | 1.20 | 1.20 | 86 | 1013.4 | |
| 20260509042152 | 69 | 146 | 1.0 | 2.0 | 0.00 | 1.20 | 1.20 | 87 | 1013.5 |
| 20260509041201 | 69 | 142 | 6.0 | 9.0 | 0.00 | 1.20 | 1.20 | 86 | 1012.7 |
| 20260509040153 | 69 | 181 | 5.0 | 9.0 | 0.00 | 1.20 | 1.20 | 86 | 1012.8 |
| 20260509035201 | 71 | 146 | 7.0 | 10.0 | 0.00 | 1.20 | 1.20 | 81 | 1012.8 |
| 20260509034154 | 71 | 141 | 1.0 | 1.0 | 0.00 | 1.20 | 1.20 | 81 | 1014.1 |
| 20260509033201 | 70 | 158 | 1.0 | 2.0 | 0.00 | 1.20 | 1.20 | 80 | 1014.4 |
| 20260509032153 | 71 | 145 | 1.0 | 1.0 | 0.00 | 1.20 | 1.20 | 80 | 1014.1 |
| 20260509031201 | 71 | 0.0 | 0.0 | 0.00 | 1.20 | 1.20 | 79 | 1013.8 | |
| 20260509030153 | 71 | 123 | 0.0 | 1.0 | 0.00 | 1.20 | 1.20 | 79 | 1013.8 |
| 20260509025201 | 71 | 119 | 0.0 | 1.0 | 0.00 | 1.20 | 1.20 | 79 | 1013.8 |
| 20260509024153 | 71 | 116 | 1.0 | 1.0 | 0.00 | 1.20 | 1.20 | 78 | 1013.6 |
| 20260509023201 | 71 | 93 | 2.0 | 3.0 | 0.00 | 1.20 | 1.20 | 78 | 1013.2 |
| 20260509022153 | 71 | 94 | 3.0 | 5.0 | 0.00 | 1.20 | 1.20 | 77 | 1013.1 |
| 20260509020154 | 72 | 151 | 4.0 | 6.0 | 0.00 | 1.20 | 1.20 | 76 | 1012.7 |
| 20260509015201 | 72 | 157 | 3.0 | 5.0 | 0.00 | 1.20 | 1.20 | 76 | 1012.6 |
| 20260509014153 | 72 | 133 | 4.0 | 6.0 | 0.00 | 1.20 | 1.20 | 75 | 1012.4 |
| 20260509013202 | 72 | 149 | 3.0 | 7.0 | 0.00 | 1.20 | 1.20 | 74 | 1012.2 |
| 20260509012153 | 72 | 178 | 4.0 | 8.0 | 0.00 | 1.20 | 1.20 | 73 | 1012.3 |
| 20260509011201 | 73 | 160 | 4.0 | 6.0 | 0.00 | 1.20 | 1.20 | 73 | 1012.4 |
| 20260509010153 | 73 | 134 | 1.0 | 7.0 | 0.00 | 1.20 | 1.20 | 73 | 1012.2 |
| 20260509005201 | 73 | 0.0 | 0.0 | 0.77 | 1.20 | 1.20 | 72 | 1012.2 | |
| 20260509004153 | 73 | 0.0 | 0.0 | 0.77 | 1.20 | 1.20 | 71 | 1011.9 | |
| 20260509003201 | 74 | 115 | 2.0 | 5.0 | 0.77 | 1.20 | 1.20 | 70 | 1011.9 |
| 20260509002154 | 74 | 141 | 1.0 | 6.0 | 0.77 | 1.20 | 1.20 | 69 | 1011.7 |
| 20260509001201 | 74 | 0.0 | 0.0 | 0.77 | 1.20 | 1.20 | 69 | 1011.7 | |
| 20260509000154 | 75 | 143 | 6.0 | 8.0 | 0.77 | 1.20 | 1.20 | 68 | 1011.9 |
| 20260508235201 | 75 | 99 | 4.0 | 7.0 | 0.00 | 0.43 | 0.43 | 68 | 1012.1 |
| 20260508234153 | 76 | 101 | 5.0 | 8.0 | 0.00 | 0.43 | 0.43 | 66 | 1012.0 |
| 20260508233201 | 77 | 153 | 3.0 | 7.0 | 0.00 | 0.43 | 0.43 | 66 | 1012.2 |
| 20260508232153 | 77 | 146 | 4.0 | 6.0 | 0.00 | 0.43 | 0.43 | 66 | 1012.2 |
| 20260508231201 | 77 | 142 | 3.0 | 5.0 | 0.00 | 0.43 | 0.43 | 67 | 1012.3 |
| 20260508230154 | 77 | 157 | 5.0 | 6.0 | 0.00 | 0.43 | 0.43 | 66 | 1012.1 |
| 20260508225201 | 78 | 131 | 2.0 | 8.0 | 0.00 | 0.43 | 0.43 | 66 | 1012.3 |
| 20260508224213 | 79 | 0.0 | 0.0 | 0.00 | 0.43 | 0.43 | 63 | 1012.2 | |
| 20260508223202 | 79 | 194 | 4.0 | 7.0 | 0.00 | 0.43 | 0.43 | 63 | 1012.3 |
| 20260508222154 | 78 | 0.0 | 0.0 | 0.00 | 0.43 | 0.43 | 63 | 1012.3 | |
| 20260508221202 | 79 | 131 | 6.0 | 10.0 | 0.00 | 0.43 | 0.43 | 62 | 1012.1 |
| 20260508220153 | 78 | 160 | 1.0 | 5.0 | 0.00 | 0.43 | 0.43 | 62 | 1011.9 |
| 20260508215202 | 79 | 149 | 5.0 | 8.0 | 0.00 | 0.43 | 0.43 | 63 | 1012.1 |
| 20260508214154 | 78 | 133 | 4.0 | 9.0 | 0.00 | 0.43 | 0.43 | 62 | 1011.7 |
| 20260508213201 | 78 | 130 | 6.0 | 10.0 | 0.00 | 0.43 | 0.43 | 61 | 1012.1 |
| 20260508212153 | 78 | 153 | 3.0 | 5.0 | 0.00 | 0.43 | 0.43 | 62 | 1012.4 |
| 20260508211201 | 78 | 79 | 6.0 | 11.0 | 0.00 | 0.43 | 0.43 | 60 | 1012.6 |
| 20260508210154 | 77 | 161 | 5.0 | 8.0 | 0.00 | 0.43 | 0.43 | 63 | 1013.1 |